Location: Tel Aviv
(32.0670°N, 34.7670°E)
Time: 08:46:42
(UTC+02:00)

Transit 2A Rocket - Pass Details

Date: 16 December 2023
Orbit: 590 x 905 km, 66.7° (Epoch: 01 March)

Event Time Altitude Azimuth Distance (km) Brightness Sun altitude
Exits shadow 04:44:51 11° 209° (SSW) 2,087 7.1 -22.5°
Drops below altitude 10° 04:45:07 10° 207° (SSW) 2,162 7.2 -22.5°
Sets 04:48:08 0° 190° (S) 3,143 8.2 -21.8°
